Time,TemperatureF,DewpointF,PressureIn,WindDirection,WindDirectionDegrees,WindSpeedMPH,WindSpeedGustMPH,Humidity,HourlyPrecipIn,Conditions,Clouds,dailyrainin,SolarRadiationWatts/m^2,SoftwareType,DateUTC
2018-04-21 00:00:00,55.0,47.2,30.08,South,183,0.0,7.0,75,0.00,,,0.00,0001,Weather View 32 v70,2018-04-21 04:00:00,
2018-04-21 00:05:00,54.5,47.1,30.08,SSE,160,2.0,7.0,76,0.00,,,0.00,0001,Weather View 32 v70,2018-04-21 04:05:00,
2018-04-21 00:10:00,54.2,47.1,30.09,SSE,160,1.0,7.0,77,0.00,,,0.00,0001,Weather View 32 v70,2018-04-21 04:10:00,
2018-04-21 00:20:00,53.7,47.0,30.09,WSW,250,0.0,7.0,78,0.00,,,0.00,0001,Weather View 32 v70,2018-04-21 04:20:00,
2018-04-21 00:25:00,53.5,46.8,30.09,South,183,0.0,7.0,78,0.00,,,0.00,0001,Weather View 32 v70,2018-04-21 04:25:00,
2018-04-21 00:30:00,53.1,46.7,30.09,WSW,250,0.0,5.0,79,0.00,,,0.00,0002,Weather View 32 v70,2018-04-21 04:30:00,
2018-04-21 00:35:00,52.9,46.6,30.09,West,273,0.0,5.0,79,0.00,,,0.00,0001,Weather View 32 v70,2018-04-21 04:35:00,
2018-04-21 00:40:00,52.6,46.3,30.10,WSW,250,0.0,4.0,79,0.00,,,0.00,0001,Weather View 32 v70,2018-04-21 04:40:00,
2018-04-21 00:45:00,52.4,46.4,30.10,West,273,0.0,4.0,80,0.00,,,0.00,0001,Weather View 32 v70,2018-04-21 04:45:00,
2018-04-21 01:00:00,51.6,45.9,30.10,SW,228,0.0,4.0,81,0.00,,,0.00,0001,Weather View 32 v70,2018-04-21 05:00:00,
2018-04-21 01:05:00,51.5,46.2,30.10,WSW,250,0.0,3.0,82,0.00,,,0.00,0001,Weather View 32 v70,2018-04-21 05:05:00,
2018-04-21 01:10:00,51.4,46.1,30.10,SSW,205,0.0,3.0,82,0.00,,,0.00,0001,Weather View 32 v70,2018-04-21 05:10:00,
2018-04-21 01:15:00,51.2,46.2,30.10,WSW,250,0.0,0.0,83,0.00,,,0.00,0001,Weather View 32 v70,2018-04-21 05:15:00,
2018-04-21 01:25:00,51.0,46.3,30.11,WSW,250,0.0,0.0,84,0.00,,,0.00,0001,Weather View 32 v70,2018-04-21 05:25:00,
2018-04-21 01:30:00,51.1,46.4,30.11,WSW,250,0.0,0.0,84,0.00,,,0.00,0001,Weather View 32 v70,2018-04-21 05:30:00,
2018-04-21 01:35:00,51.1,46.4,30.10,WNW,295,0.0,0.0,84,0.00,,,0.00,0002,Weather View 32 v70,2018-04-21 05:35:00,
2018-04-21 01:45:00,50.9,46.5,30.11,West,273,0.0,0.0,85,0.00,,,0.00,0001,Weather View 32 v70,2018-04-21 05:45:00,
2018-04-21 01:50:00,50.8,46.4,30.11,SW,228,0.0,0.0,85,0.00,,,0.00,0002,Weather View 32 v70,2018-04-21 05:50:00,
2018-04-21 01:55:00,50.7,46.3,30.11,SSW,205,0.0,0.0,85,0.00,,,0.00,0001,Weather View 32 v70,2018-04-21 05:55:00,
2018-04-21 02:00:00,50.5,46.2,30.11,South,183,0.0,1.0,85,0.00,,,0.00,0001,Weather View 32 v70,2018-04-21 06:00:00,
2018-04-21 02:05:00,50.2,45.9,30.11,SSE,160,0.0,1.0,85,0.00,,,0.00,0001,Weather View 32 v70,2018-04-21 06:05:00,
2018-04-21 02:15:00,49.7,45.7,30.11,SW,228,0.0,1.0,86,0.00,,,0.00,0001,Weather View 32 v70,2018-04-21 06:15:00,
2018-04-21 02:20:00,49.5,45.5,30.11,WSW,250,0.0,1.0,86,0.00,,,0.00,0002,Weather View 32 v70,2018-04-21 06:20:00,
2018-04-21 02:25:00,49.5,45.8,30.11,SW,228,0.0,1.0,87,0.00,,,0.00,0001,Weather View 32 v70,2018-04-21 06:25:00,
2018-04-21 02:30:00,49.3,45.6,30.11,SW,228,0.0,1.0,87,0.00,,,0.00,0001,Weather View 32 v70,2018-04-21 06:30:00,
2018-04-21 02:40:00,49.1,45.4,30.11,West,273,0.0,1.0,87,0.00,,,0.00,0001,Weather View 32 v70,2018-04-21 06:40:00,
2018-04-21 02:45:00,49.1,45.7,30.11,WNW,295,0.0,1.0,88,0.00,,,0.00,0001,Weather View 32 v70,2018-04-21 06:45:00,
2018-04-21 02:50:00,49.0,45.6,30.11,SW,228,0.0,1.0,88,0.00,,,0.00,0001,Weather View 32 v70,2018-04-21 06:50:00,
2018-04-21 02:55:00,48.8,45.4,30.11,North,3,0.0,1.0,88,0.00,,,0.00,0001,Weather View 32 v70,2018-04-21 06:55:00,
2018-04-21 03:00:00,48.8,45.4,30.11,West,273,0.0,0.0,88,0.00,,,0.00,0001,Weather View 32 v70,2018-04-21 07:00:00,
2018-04-21 03:05:00,48.5,45.1,30.11,South,183,0.0,0.0,88,0.00,,,0.00,0001,Weather View 32 v70,2018-04-21 07:05:00,
2018-04-21 03:15:00,48.3,44.9,30.11,ESE,115,0.0,0.0,88,0.00,,,0.00,0001,Weather View 32 v70,2018-04-21 07:15:00,
2018-04-21 03:20:00,48.1,44.7,30.11,WSW,250,0.0,0.0,88,0.00,,,0.00,0001,Weather View 32 v70,2018-04-21 07:20:00,
2018-04-21 03:25:00,48.0,44.6,30.11,WNW,295,0.0,0.0,88,0.00,,,0.00,0001,Weather View 32 v70,2018-04-21 07:25:00,
2018-04-21 03:35:00,47.9,44.8,30.12,SW,228,0.0,0.0,89,0.00,,,0.00,0001,Weather View 32 v70,2018-04-21 07:35:00,
2018-04-21 03:40:00,47.9,44.8,30.11,SW,228,0.0,0.0,89,0.00,,,0.00,0001,Weather View 32 v70,2018-04-21 07:40:00,
2018-04-21 03:45:00,47.8,44.7,30.11,SW,228,0.0,0.0,89,0.00,,,0.00,0001,Weather View 32 v70,2018-04-21 07:45:00,
2018-04-21 03:50:00,47.7,44.6,30.11,SW,228,0.0,0.0,89,0.00,,,0.00,0001,Weather View 32 v70,2018-04-21 07:50:00,
2018-04-21 04:00:00,47.7,44.9,30.11,WSW,250,0.0,0.0,90,0.00,,,0.00,0001,Weather View 32 v70,2018-04-21 08:00:00,
2018-04-21 04:05:00,47.6,44.8,30.12,West,273,0.0,0.0,90,0.00,,,0.00,0001,Weather View 32 v70,2018-04-21 08:05:00,
2018-04-21 04:10:00,47.4,44.6,30.11,SW,228,0.0,0.0,90,0.00,,,0.00,0001,Weather View 32 v70,2018-04-21 08:10:00,
2018-04-21 04:20:00,47.5,44.7,30.11,WSW,250,0.0,0.0,90,0.00,,,0.00,0001,Weather View 32 v70,2018-04-21 08:20:00,
2018-04-21 04:25:00,47.4,44.6,30.11,SSW,205,0.0,0.0,90,0.00,,,0.00,0001,Weather View 32 v70,2018-04-21 08:25:00,
2018-04-21 04:30:00,47.4,44.9,30.11,SSE,160,0.0,0.0,91,0.00,,,0.00,0001,Weather View 32 v70,2018-04-21 08:30:00,
2018-04-21 04:35:00,47.3,44.8,30.11,WSW,250,0.0,0.0,91,0.00,,,0.00,0001,Weather View 32 v70,2018-04-21 08:35:00,
2018-04-21 04:45:00,47.3,44.8,30.11,West,273,0.0,0.0,91,0.00,,,0.00,0001,Weather View 32 v70,2018-04-21 08:45:00,
2018-04-21 04:50:00,47.3,44.8,30.11,SW,228,0.0,0.0,91,0.00,,,0.00,0001,Weather View 32 v70,2018-04-21 08:50:00,
2018-04-21 04:55:00,47.1,44.6,30.11,SSW,205,0.0,0.0,91,0.00,,,0.00,0001,Weather View 32 v70,2018-04-21 08:55:00,
2018-04-21 05:00:00,46.9,44.4,30.10,SSE,160,0.0,0.0,91,0.00,,,0.00,0001,Weather View 32 v70,2018-04-21 09:00:00,
2018-04-21 05:05:00,46.8,44.3,30.10,SSW,205,0.0,0.0,91,0.00,,,0.00,0001,Weather View 32 v70,2018-04-21 09:05:00,
2018-04-21 05:15:00,46.6,44.1,30.10,ESE,115,0.0,0.0,91,0.00,,,0.00,0001,Weather View 32 v70,2018-04-21 09:15:00,
2018-04-21 05:20:00,46.5,44.3,30.10,SSE,160,0.0,0.0,92,0.00,,,0.00,0001,Weather View 32 v70,2018-04-21 09:20:00,
2018-04-21 05:25:00,46.4,44.2,30.10,SSE,160,0.0,0.0,92,0.00,,,0.00,0001,Weather View 32 v70,2018-04-21 09:25:00,
2018-04-21 05:35:00,46.1,43.9,30.09,South,183,0.0,0.0,92,0.00,,,0.00,0001,Weather View 32 v70,2018-04-21 09:35:00,
2018-04-21 05:40:00,46.0,43.8,30.09,WNW,295,0.0,0.0,92,0.00,,,0.00,0001,Weather View 32 v70,2018-04-21 09:40:00,
2018-04-21 05:45:00,46.0,43.8,30.09,WSW,250,0.0,0.0,92,0.00,,,0.00,0001,Weather View 32 v70,2018-04-21 09:45:00,
2018-04-21 05:50:00,46.0,43.8,30.09,NNE,25,0.0,0.0,92,0.00,,,0.00,0001,Weather View 32 v70,2018-04-21 09:50:00,
2018-04-21 06:00:00,45.9,44.0,30.09,SW,228,0.0,0.0,93,0.00,,,0.00,0001,Weather View 32 v70,2018-04-21 10:00:00,
2018-04-21 06:05:00,45.8,43.9,30.09,WNW,295,0.0,0.0,93,0.00,,,0.00,0001,Weather View 32 v70,2018-04-21 10:05:00,
2018-04-21 06:10:00,45.9,44.0,30.09,WNW,295,0.0,0.0,93,0.00,,,0.00,0001,Weather View 32 v70,2018-04-21 10:10:00,
2018-04-21 06:15:00,45.9,44.0,30.09,WSW,250,0.0,0.0,93,0.00,,,0.00,0001,Weather View 32 v70,2018-04-21 10:15:00,
2018-04-21 06:20:00,46.0,44.1,30.08,SW,228,0.0,0.0,93,0.00,,,0.00,0001,Weather View 32 v70,2018-04-21 10:20:00,
2018-04-21 06:30:00,46.2,44.6,30.08,WSW,250,0.0,0.0,94,0.00,,,0.00,0001,Weather View 32 v70,2018-04-21 10:30:00,
2018-04-21 06:35:00,46.2,44.6,30.08,WNW,295,0.0,0.0,94,0.00,,,0.00,0001,Weather View 32 v70,2018-04-21 10:35:00,
2018-04-21 06:40:00,46.2,44.6,30.08,WNW,295,0.0,0.0,94,0.00,,,0.00,0001,Weather View 32 v70,2018-04-21 10:40:00,
2018-04-21 06:45:00,45.9,44.0,30.08,SE,138,0.0,0.0,93,0.00,,,0.00,0001,Weather View 32 v70,2018-04-21 10:45:00,
2018-04-21 06:52:00,45.6,43.7,30.08,SSE,160,0.0,0.0,93,0.00,,,0.00,0001,Weather View 32 v70,2018-04-21 10:52:00,
2018-04-21 07:00:00,45.5,43.9,30.08,ESE,115,0.0,3.0,94,0.00,,,0.00,0001,Weather View 32 v70,2018-04-21 11:00:00,
2018-04-21 07:05:00,45.5,43.9,30.08,SSE,160,0.0,3.0,94,0.00,,,0.00,0001,Weather View 32 v70,2018-04-21 11:05:00,
2018-04-21 07:10:00,45.6,44.0,30.08,SSE,160,0.0,3.0,94,0.00,,,0.00,0001,Weather View 32 v70,2018-04-21 11:10:00,
2018-04-21 07:20:00,45.3,43.7,30.08,WSW,250,0.0,3.0,94,0.00,,,0.00,0001,Weather View 32 v70,2018-04-21 11:20:00,
2018-04-21 07:25:00,45.4,43.8,30.08,NW,318,0.0,3.0,94,0.00,,,0.00,0001,Weather View 32 v70,2018-04-21 11:25:00,
2018-04-21 07:30:00,45.3,43.7,30.08,SSW,205,0.0,3.0,94,0.00,,,0.00,0001,Weather View 32 v70,2018-04-21 11:30:00,
2018-04-21 07:35:00,45.3,43.7,30.08,SW,228,0.0,3.0,94,0.00,,,0.00,0001,Weather View 32 v70,2018-04-21 11:35:00,
2018-04-21 07:45:00,44.8,43.2,30.08,South,183,0.0,3.0,94,0.00,,,0.00,0001,Weather View 32 v70,2018-04-21 11:45:00,
2018-04-21 07:50:00,44.7,43.4,30.08,ENE,70,0.0,3.0,95,0.00,,,0.00,0001,Weather View 32 v70,2018-04-21 11:50:00,
2018-04-21 07:55:00,44.6,43.3,30.08,WSW,250,0.0,3.0,95,0.00,,,0.00,0001,Weather View 32 v70,2018-04-21 11:55:00,
2018-04-21 08:00:00,44.5,43.2,30.09,WSW,250,0.0,0.0,95,0.00,,,0.00,0001,Weather View 32 v70,2018-04-21 12:00:00,
2018-04-21 08:10:00,44.4,43.1,30.09,NNE,25,0.0,0.0,95,0.00,,,0.00,0001,Weather View 32 v70,2018-04-21 12:10:00,
2018-04-21 08:15:00,44.0,42.7,30.08,SSW,205,0.0,0.0,95,0.00,,,0.00,0001,Weather View 32 v70,2018-04-21 12:15:00,
2018-04-21 08:30:00,44.1,42.8,30.09,SSW,205,0.0,0.0,95,0.00,,,0.00,0002,Weather View 32 v70,2018-04-21 12:30:00,
2018-04-21 08:35:00,44.0,42.7,30.08,SW,228,0.0,0.0,95,0.00,,,0.00,0001,Weather View 32 v70,2018-04-21 12:35:00,
2018-04-21 08:40:00,43.9,42.6,30.08,SSW,205,0.0,0.0,95,0.00,,,0.00,0001,Weather View 32 v70,2018-04-21 12:40:00,
2018-04-21 08:45:00,43.9,42.6,30.08,SSW,205,0.0,0.0,95,0.00,,,0.00,0001,Weather View 32 v70,2018-04-21 12:45:00,
2018-04-21 08:50:00,43.9,42.8,30.08,WSW,250,0.0,0.0,96,0.00,,,0.00,0001,Weather View 32 v70,2018-04-21 12:50:00,
2018-04-21 09:00:00,44.0,42.9,30.08,South,183,0.0,0.0,96,0.00,,,0.00,0002,Weather View 32 v70,2018-04-21 13:00:00,
2018-04-21 09:05:00,44.0,42.9,30.08,SSE,160,0.0,0.0,96,0.00,,,0.00,0002,Weather View 32 v70,2018-04-21 13:05:00,
2018-04-21 09:10:00,44.0,42.9,30.08,WSW,250,0.0,0.0,96,0.00,,,0.00,0002,Weather View 32 v70,2018-04-21 13:10:00,
2018-04-21 09:15:00,43.8,42.7,30.09,WNW,295,0.0,0.0,96,0.00,,,0.00,0003,Weather View 32 v70,2018-04-21 13:15:00,
2018-04-21 09:25:00,44.1,43.0,30.09,South,183,0.0,3.0,96,0.00,,,0.00,0007,Weather View 32 v70,2018-04-21 13:25:00,
2018-04-21 09:30:00,44.0,42.9,30.09,ESE,115,0.0,3.0,96,0.00,,,0.00,0011,Weather View 32 v70,2018-04-21 13:30:00,
2018-04-21 09:35:00,43.7,42.6,30.08,ESE,115,0.0,3.0,96,0.00,,,0.00,0023,Weather View 32 v70,2018-04-21 13:35:00,
2018-04-21 09:40:00,43.8,42.7,30.09,SSE,160,0.0,3.0,96,0.00,,,0.00,0038,Weather View 32 v70,2018-04-21 13:40:00,
2018-04-21 09:50:00,44.0,43.2,30.09,ESE,115,0.0,3.0,97,0.00,,,0.00,0069,Weather View 32 v70,2018-04-21 13:50:00,
2018-04-21 09:55:00,44.3,43.5,30.09,ENE,70,0.0,3.0,97,0.00,,,0.00,0084,Weather View 32 v70,2018-04-21 13:55:00,
2018-04-21 10:00:00,44.5,43.7,30.09,ESE,115,0.0,3.0,97,0.00,,,0.00,0098,Weather View 32 v70,2018-04-21 14:00:00,
2018-04-21 10:05:00,44.7,43.9,30.09,SSE,160,0.0,3.0,97,0.00,,,0.00,0112,Weather View 32 v70,2018-04-21 14:05:00,
2018-04-21 10:15:00,45.0,44.2,30.09,East,93,3.0,4.0,97,0.00,,,0.00,0139,Weather View 32 v70,2018-04-21 14:15:00,
2018-04-21 10:20:00,45.3,44.5,30.09,ESE,115,3.0,5.0,97,0.00,,,0.00,0152,Weather View 32 v70,2018-04-21 14:20:00,
2018-04-21 10:25:00,45.6,44.8,30.09,SE,138,2.0,5.0,97,0.00,,,0.00,0166,Weather View 32 v70,2018-04-21 14:25:00,
2018-04-21 10:30:00,46.1,45.6,30.09,ESE,115,1.0,5.0,98,0.00,,,0.00,0179,Weather View 32 v70,2018-04-21 14:30:00,
2018-04-21 10:35:00,46.4,45.9,30.09,ESE,115,0.0,5.0,98,0.00,,,0.00,0192,Weather View 32 v70,2018-04-21 14:35:00,
2018-04-21 10:45:00,47.4,46.9,30.09,ESE,115,3.0,5.0,98,0.00,,,0.00,0221,Weather View 32 v70,2018-04-21 14:45:00,
2018-04-21 10:50:00,47.8,47.3,30.09,SSE,160,1.0,5.0,98,0.00,,,0.00,0233,Weather View 32 v70,2018-04-21 14:50:00,
2018-04-21 10:55:00,48.4,47.9,30.09,ENE,70,2.0,5.0,98,0.00,,,0.00,0247,Weather View 32 v70,2018-04-21 14:55:00,
2018-04-21 11:05:00,49.2,48.4,30.10,WNW,295,4.0,5.0,97,0.00,,,0.00,0272,Weather View 32 v70,2018-04-21 15:05:00,
2018-04-21 11:10:00,49.3,48.2,30.10,NW,318,3.0,5.0,96,0.00,,,0.00,0284,Weather View 32 v70,2018-04-21 15:10:00,
2018-04-21 11:15:00,49.6,47.9,30.10,North,3,2.0,5.0,94,0.00,,,0.00,0297,Weather View 32 v70,2018-04-21 15:15:00,
2018-04-21 11:20:00,50.0,48.1,30.09,North,3,3.0,5.0,93,0.00,,,0.00,0308,Weather View 32 v70,2018-04-21 15:20:00,
2018-04-21 11:25:00,50.5,48.3,30.10,WNW,295,4.0,5.0,92,0.00,,,0.00,0321,Weather View 32 v70,2018-04-21 15:25:00,
2018-04-21 11:35:00,51.1,47.7,30.10,WNW,295,3.0,5.0,88,0.00,,,0.00,0345,Weather View 32 v70,2018-04-21 15:35:00,
2018-04-21 11:40:00,51.5,47.8,30.09,NW,318,3.0,5.0,87,0.00,,,0.00,0357,Weather View 32 v70,2018-04-21 15:40:00,
2018-04-21 11:45:00,51.9,47.8,30.09,SW,228,1.0,5.0,86,0.00,,,0.00,0369,Weather View 32 v70,2018-04-21 15:45:00,
2018-04-21 11:50:00,52.7,48.6,30.09,North,3,3.0,5.0,86,0.00,,,0.00,0382,Weather View 32 v70,2018-04-21 15:50:00,
2018-04-21 12:00:00,54.2,49.5,30.09,NNW,340,1.0,5.0,84,0.00,,,0.00,0407,Weather View 32 v70,2018-04-21 16:00:00,
2018-04-21 12:05:00,55.4,50.6,30.09,ENE,70,1.0,5.0,84,0.00,,,0.00,0421,Weather View 32 v70,2018-04-21 16:05:00,
2018-04-21 12:10:00,56.1,50.7,30.08,ESE,115,2.0,5.0,82,0.00,,,0.00,0431,Weather View 32 v70,2018-04-21 16:10:00,
2018-04-21 12:15:00,56.5,50.7,30.08,ESE,115,1.0,5.0,81,0.00,,,0.00,0445,Weather View 32 v70,2018-04-21 16:15:00,
2018-04-21 12:25:00,57.1,50.3,30.08,ESE,115,3.0,6.0,78,0.00,,,0.00,0470,Weather View 32 v70,2018-04-21 16:25:00,
2018-04-21 12:30:00,57.1,49.6,30.08,SSE,160,3.0,6.0,76,0.00,,,0.00,0482,Weather View 32 v70,2018-04-21 16:30:00,
2018-04-21 12:35:00,57.7,50.2,30.08,ESE,115,4.0,6.0,76,0.00,,,0.00,0495,Weather View 32 v70,2018-04-21 16:35:00,
2018-04-21 12:40:00,58.3,50.4,30.08,SSE,160,2.0,6.0,75,0.00,,,0.00,0506,Weather View 32 v70,2018-04-21 16:40:00,
2018-04-21 12:50:00,59.5,50.8,30.08,SE,138,3.0,6.0,73,0.00,,,0.00,0531,Weather View 32 v70,2018-04-21 16:50:00,
2018-04-21 12:55:00,60.5,51.4,30.08,ESE,115,1.0,6.0,72,0.00,,,0.00,0544,Weather View 32 v70,2018-04-21 16:55:00,
2018-04-21 13:05:00,61.8,51.5,30.07,North,3,1.0,6.0,69,0.00,,,0.00,0566,Weather View 32 v70,2018-04-21 17:05:00,
2018-04-21 13:10:00,62.2,50.7,30.08,NNW,340,1.0,6.0,66,0.00,,,0.00,0578,Weather View 32 v70,2018-04-21 17:10:00,
2018-04-21 13:20:00,63.7,51.3,30.07,SSE,160,1.0,5.0,64,0.00,,,0.00,0600,Weather View 32 v70,2018-04-21 17:20:00,
2018-04-21 13:25:00,64.2,50.9,30.07,East,93,3.0,5.0,62,0.00,,,0.00,0612,Weather View 32 v70,2018-04-21 17:25:00,
2018-04-21 13:35:00,65.5,50.8,30.07,ENE,70,2.0,5.0,59,0.00,,,0.00,0632,Weather View 32 v70,2018-04-21 17:35:00,
2018-04-21 13:45:00,65.5,47.4,30.08,WNW,295,4.0,6.0,52,0.00,,,0.00,0654,Weather View 32 v70,2018-04-21 17:45:00,
2018-04-21 13:50:00,65.6,47.5,30.08,NW,318,2.0,6.0,52,0.00,,,0.00,0664,Weather View 32 v70,2018-04-21 17:50:00,
2018-04-21 13:55:00,66.0,47.3,30.07,North,3,3.0,6.0,51,0.00,,,0.00,0675,Weather View 32 v70,2018-04-21 17:55:00,
2018-04-21 14:00:00,66.3,47.1,30.07,West,273,3.0,6.0,50,0.00,,,0.00,0682,Weather View 32 v70,2018-04-21 18:00:00,
2018-04-21 14:05:00,67.0,47.7,30.07,East,93,1.0,6.0,50,0.00,,,0.00,0690,Weather View 32 v70,2018-04-21 18:05:00,
2018-04-21 14:15:00,67.6,46.6,30.07,NNW,340,2.0,6.0,47,0.00,,,0.00,0704,Weather View 32 v70,2018-04-21 18:15:00,
2018-04-21 14:20:00,67.9,46.3,30.07,NE,48,1.0,6.0,46,0.00,,,0.00,0710,Weather View 32 v70,2018-04-21 18:20:00,
2018-04-21 14:25:00,68.1,46.5,30.07,West,273,3.0,6.0,46,0.00,,,0.00,0714,Weather View 32 v70,2018-04-21 18:25:00,
2018-04-21 14:30:00,68.6,47.5,30.07,West,273,3.0,6.0,47,0.00,,,0.00,0718,Weather View 32 v70,2018-04-21 18:30:00,
2018-04-21 14:40:00,69.3,45.8,30.06,NNE,25,4.0,7.0,43,0.00,,,0.00,0729,Weather View 32 v70,2018-04-21 18:40:00,
2018-04-21 14:45:00,69.7,45.5,30.06,ENE,70,1.0,7.0,42,0.00,,,0.00,0735,Weather View 32 v70,2018-04-21 18:45:00,
2018-04-21 14:50:00,70.2,46.0,30.06,NNE,25,2.0,7.0,42,0.00,,,0.00,0738,Weather View 32 v70,2018-04-21 18:50:00,
2018-04-21 14:55:00,70.8,46.5,30.06,WSW,250,1.0,7.0,42,0.00,,,0.00,0742,Weather View 32 v70,2018-04-21 18:55:00,
2018-04-21 15:05:00,71.3,47.0,30.06,WSW,250,1.0,7.0,42,0.00,,,0.00,0749,Weather View 32 v70,2018-04-21 19:05:00,
2018-04-21 15:10:00,71.5,47.1,30.06,WNW,295,3.0,7.0,42,0.00,,,0.00,0753,Weather View 32 v70,2018-04-21 19:10:00,
2018-04-21 15:15:00,71.9,47.5,30.05,NE,48,1.0,7.0,42,0.00,,,0.00,0754,Weather View 32 v70,2018-04-21 19:15:00,
2018-04-21 15:20:00,72.7,48.2,30.05,SW,228,1.0,7.0,42,0.00,,,0.00,0757,Weather View 32 v70,2018-04-21 19:20:00,
2018-04-21 15:30:00,73.5,48.9,30.05,West,273,1.0,7.0,42,0.00,,,0.00,0764,Weather View 32 v70,2018-04-21 19:30:00,
2018-04-21 15:35:00,73.6,48.4,30.05,WNW,295,4.0,7.0,41,0.00,,,0.00,0768,Weather View 32 v70,2018-04-21 19:35:00,
2018-04-21 15:40:00,74.1,49.5,30.04,NE,48,1.0,7.0,42,0.00,,,0.00,0766,Weather View 32 v70,2018-04-21 19:40:00,
2018-04-21 15:45:00,74.6,49.9,30.04,East,93,4.0,7.0,42,0.00,,,0.00,0770,Weather View 32 v70,2018-04-21 19:45:00,
2018-04-21 15:50:00,74.6,49.9,30.04,SSE,160,3.0,7.0,42,0.00,,,0.00,0774,Weather View 32 v70,2018-04-21 19:50:00,
2018-04-21 15:57:00,74.6,49.3,30.04,ESE,115,3.0,7.0,41,0.00,,,0.00,0777,Weather View 32 v70,2018-04-21 19:57:00,
2018-04-21 16:05:00,75.5,48.7,30.04,SW,228,2.0,7.0,39,0.00,,,0.00,0775,Weather View 32 v70,2018-04-21 20:05:00,
2018-04-21 16:10:00,74.8,48.1,30.03,SSW,205,3.0,7.0,39,0.00,,,0.00,0777,Weather View 32 v70,2018-04-21 20:10:00,
2018-04-21 16:15:00,75.5,49.4,30.03,WSW,250,4.0,7.0,40,0.00,,,0.00,0775,Weather View 32 v70,2018-04-21 20:15:00,
2018-04-21 16:25:00,75.6,49.5,30.02,North,3,4.0,7.0,40,0.00,,,0.00,0772,Weather View 32 v70,2018-04-21 20:25:00,
2018-04-21 16:30:00,75.9,49.8,30.02,SSW,205,5.0,7.0,40,0.00,,,0.00,0772,Weather View 32 v70,2018-04-21 20:30:00,
2018-04-21 16:35:00,76.0,49.9,30.02,SSW,205,2.0,7.0,40,0.00,,,0.00,0770,Weather View 32 v70,2018-04-21 20:35:00,
2018-04-21 16:40:00,76.5,51.0,30.02,ESE,115,1.0,7.0,41,0.00,,,0.00,0765,Weather View 32 v70,2018-04-21 20:40:00,
2018-04-21 16:55:00,76.5,48.2,30.02,North,3,2.0,7.0,37,0.00,,,0.00,0758,Weather View 32 v70,2018-04-21 20:55:00,
2018-04-21 17:00:00,77.5,49.8,30.02,South,183,4.0,7.0,38,0.00,,,0.00,0752,Weather View 32 v70,2018-04-21 21:00:00,
2018-04-21 17:05:00,77.2,49.5,30.02,ESE,115,3.0,7.0,38,0.00,,,0.00,0749,Weather View 32 v70,2018-04-21 21:05:00,
2018-04-21 17:15:00,77.1,48.7,30.01,East,93,4.0,7.0,37,0.00,,,0.00,0739,Weather View 32 v70,2018-04-21 21:15:00,
2018-04-21 17:20:00,77.5,49.1,30.01,West,273,1.0,7.0,37,0.00,,,0.00,0733,Weather View 32 v70,2018-04-21 21:20:00,
2018-04-21 17:25:00,78.2,48.2,30.01,North,3,2.0,7.0,35,0.00,,,0.00,0725,Weather View 32 v70,2018-04-21 21:25:00,
2018-04-21 17:30:00,79.0,48.9,30.01,North,3,3.0,7.0,35,0.00,,,0.00,0721,Weather View 32 v70,2018-04-21 21:30:00,
2018-04-21 17:35:00,79.5,47.8,30.01,SW,228,3.0,9.0,33,0.00,,,0.00,0716,Weather View 32 v70,2018-04-21 21:35:00,
2018-04-21 17:45:00,80.0,48.2,30.00,ENE,70,3.0,9.0,33,0.00,,,0.00,0704,Weather View 32 v70,2018-04-21 21:45:00,